Preview of NWS' New Version of Forecast
This preview is not operational and should not be used for support decisions.

Regional Weather Roundup (RWR)

Issued by National Weather Service (NWS)

                            
000
ASUS42 KTBW 210818
RWRFL 
FLORIDA REGIONAL WEATHER ROUNDUP
NATIONAL WEATHER SERVICE TAMPA BAY RUSKIN FL
400 AM EDT SUN JUL 21 2019

NOTE: "FAIR" INDICATES FEW OR NO CLOUDS BELOW 12,000 FEET WITH NO
SIGNIFICANT WEATHER AND/OR OBSTRUCTIONS TO VISIBILITY.

FLZ001>010-012>015-112-114-115-210900-
PANHANDLE FLORIDA
  
CITY           SKY/WX    TMP DP  RH WIND       PRES   REMARKS
PENSACOLA      CLOUDY    77  74  90 W8        30.01S                  
PENSACOLA NAS  FAIR      75  74  96 CALM      30.00F                  
MILTON NAS     FAIR      71  71 100 CALM        N/A                   
CRESTVIEW      FAIR      71  69  93 CALM      30.03R                  
DUKE FIELD     FAIR      73  73 100 CALM      30.01S                  
VALPARAISO     FAIR      74  72  93 N3        29.99F                  
MARY ESTHER    PTCLDY    73  71  93 CALM      29.99F                  
PANAMA CITY    FAIR      72  69  90 CALM      30.00F                  
TYNDALL AFB    FAIR      75  72  91 E6        30.00F                  
APALACHICOLA   FAIR      75  72  90 E6        30.02F                  

STATION/POSITION SKY/WX   TEMP    WIND        PRES    WAVE   SWELL
                          AIR SEA DIR/SP/G            HT/PER HT/PER
                          (F)     (DEG/KT/KT) (MB)    (FT/S) (FT/S)
30.1N   87.6W              82 86  250/  4/  6 1015.6F   2/ 3   2/ 5
29.2N   88.2W              83 84  170/  8/ 10 1015.7F   2/ 5   2/ 5
28.8N   86.0W                 86  140/  6/ 10 1015.9F   1/ 4   2/ 4
PANAMA CITY BEAC           82 85  200/  4/  5 1016.4F
TOWER C                    82      80/  5/  5 1017.1F
28.5N   84.5W              82      80/  4/  4 1017.0F   1/ 5

$$
FLZ011-016>038-118-127-128-134-139-239-210900-
NORTH FLORIDA
  
CITY           SKY/WX    TMP DP  RH WIND       PRES   REMARKS
MARIANNA       FAIR      74  74 100 SE5       30.01F                  
TALLAHASSEE    FAIR      74  73  97 CALM      30.03S                  
PERRY          FAIR      74  74  97 CALM      30.04F                  
LIVE OAK       CLEAR     73  73 100 CALM      30.03F                  
CROSS CITY     FAIR      73  72  98 E3        30.05S                  
LAKE CITY      FAIR      70  70 100 CALM      30.05F                  
GAINESVILLE    FAIR      71  70  96 NE3       30.08F                  
WILLISTON      FAIR      71  71  99 CALM      30.06S                  
PALATKA        MOCLDY    72  72 100 CALM      30.06F                  
MAYPORT NAS    FAIR      75  72  90 NW5       30.05F                  
JACKSONVILLE   FAIR      72  71  97 CALM      30.03F                  
JAX NAS        FAIR      76  72  87 CALM      30.06F                  
JAX CECIL      FOG       70  70 100 CALM      30.05F VSB 1            
FERNANDINA BEA FAIR      73  72  96 CALM      30.05F                  
ST AUGUSTINE   FAIR      75  72  90 CALM      30.07S                  
PALM COAST     FAIR      73  72  95 CALM      30.06F                  

STATION/POSITION SKY/WX   TEMP    WIND        PRES    WAVE   SWELL
                          AIR SEA DIR/SP/G            HT/PER HT/PER
                          (F)     (DEG/KT/KT) (MB)    (FT/S) (FT/S)
SHELL POINT      NOT AVBL
KEATON BEACH               75      40/  3/  4 1016.9F
CEDAR KEY                  80      90/  7/  8 1017.3F
FERNANDINA                 79 84  130/  2/  3 1018.3F
30.7N   81.3W                 83                N/A     2/ 9
MAYPORT                    76 81  290/  4/  4 1018.2F
31.4N   80.9W              82 83  220/  8/ 10 1017.4F   2/ 8   2/ 8
ST AUGUSTINE               78 77  250/  3/  4 1018.1S

$$
FLZ040-043>046-052-053-057-058-063-144-210900-
INTERIOR CENTRAL FLORIDA
  
CITY           SKY/WX    TMP DP  RH WIND       PRES   REMARKS
OCALA          FAIR      72  71  97 CALM      30.07S                  
LEESBURG       FAIR      77  73  87 NE7       30.06F                  
SANFORD        FAIR      77  75  93 CALM      30.05F                  
ORLANDO EXEC   FAIR      79  75  87 CALM      30.05F                  
ORLANDO INTL   MOCLDY    77  75  93 CALM      30.05F                  
KISSIMMEE      FAIR      79  76  90 CALM      30.06S                  
WINTER HAVEN   FAIR      78  75  90 N6        30.06S                  
LAKELAND       FAIR      73  73 100 CALM      30.05F                  
BARTOW         FAIR      77  75  94 CALM      30.04S                  
SEBRING        FAIR      75  74  96 N3        30.04F                  
OKEECHOBEE     FAIR      73  72  94 CALM      30.03F                  

$$
FLZ041-047-054-059-064-141-147-210900-
EAST CENTRAL FLORIDA
  
CITY           SKY/WX    TMP DP  RH WIND       PRES   REMARKS
DAYTONA BEACH  FAIR      76  76 100 CALM      30.06S                  
DELAND         FAIR      75  73  94 CALM      30.06S                  
JFK SPACE CTR  CLEAR     77  67  71 CALM      30.04F                  
CAPE CANAVERAL CLEAR     78  57  49 CALM      30.03F                  
PATRICK AFB    FAIR      81  81 100 S5        30.04S                  
MELBOURNE      FAIR      80  76  87 CALM      30.04F                  
VERO BEACH     FAIR      78  75  90 S3        30.03F                  
FT PIERCE      FAIR      77  72  84 CALM      30.03F                  
STUART         FAIR      75  72  88 CALM      30.04F                  

STATION/POSITION SKY/WX   TEMP    WIND        PRES    WAVE   SWELL
                          AIR SEA DIR/SP/G            HT/PER HT/PER
                          (F)     (DEG/KT/KT) (MB)    (FT/S) (FT/S)
28.5N   80.2W              83 83  130/ 10/ 12 1017.2F   2/ 8   2/ 8
28.9N   78.5W              84 86  140/  8/ 12   N/A     2/ 8   2/ 8
TRIDENT PIER               81 84  140/  4/  7 1018.7F
28.4N   80.5W                 82                N/A     1/ 8
27.5N   80.2W                 83                N/A     1/ 8

$$
FLZ050-056-061-142-242-148-248-149-249-151-251-155-255-
160-260-210900-
WEST CENTRAL FLORIDA
  
CITY           SKY/WX    TMP DP  RH WIND       PRES   REMARKS
CRYSTAL RIVER  FAIR      72  70  94 CALM      30.05S                  
INVERNESS      FAIR      72  72 100 CALM      30.05F                  
BROOKSVILLE    FAIR      73  71  93 SE5       30.05F                  
CLEARWATER AIR FAIR      73  72  94 E5        30.04S                  
ST PETE CLEARW FAIR      77  73  87 E8        30.04S                  
TAMPA INTL     FAIR      76  71  85 CALM      30.05S                  
TAMPA EXEC     FAIR      72  72 100 CALM      30.05F                  
PLANT CITY     FAIR     N/A N/A N/A MISG      30.07S                  
MACDILL AFB    FAIR      76  73  90 NE6       30.04S                  
PETER O KNIGHT CLOUDY   N/A N/A N/A NE7       30.05S                  
ST PETERSBURG  FAIR      79  73  82 E9        30.02F                  
SARASOTA       FAIR      75  72  90 E6        30.01F                  
VENICE         FAIR      75  73  94 E6        30.03S                  

STATION/POSITION SKY/WX   TEMP    WIND        PRES    WAVE   SWELL
                          AIR SEA DIR/SP/G            HT/PER HT/PER
                          (F)     (DEG/KT/KT) (MB)    (FT/S) (FT/S)
27.3N   84.2W                 86                N/A     2/ 4
CLEARWATER BEACH           79 88   70/  5/  7 1017.2F
MIDDLE TAMPA BAY           77     120/  6/  7 1017.1F
VENICE                     74 87   80/  7/  8 1016.8S

$$
FLZ066-069-070-075>078-162-262-165-265-210900-
SOUTHWEST FLORIDA AND KEYS
  
CITY           SKY/WX    TMP DP  RH WIND       PRES   REMARKS
PUNTA GORDA    FAIR      73  73 100 E6        30.05S                  
FT MYERS       FAIR      74  72  93 E5        30.02S                  
SOUTHWEST INTL FAIR      75  73  93 E3        30.03S                  
MARCO ISLAND   FAIR      76  74  93 MISG      30.02F                  
IMMOKALEE      FAIR      73  72  94 N5        30.01S                  
MARATHON       FAIR      83  73  72 SE8       29.99S                  
KEY WEST NAS   MOCLDY    84  76  76 SE8       29.99R THUNDER          
KEY WEST INTL  MOCLDY    83  76  79 SE7       29.99F                  

STATION/POSITION SKY/WX   TEMP    WIND        PRES    WAVE   SWELL
                          AIR SEA DIR/SP/G            HT/PER HT/PER
                          (F)     (DEG/KT/KT) (MB)    (FT/S) (FT/S)
NAPLES                     77 86              1016.6S
26.0N   85.6W              84 86  120/  8/ 12 1015.7F   2/ 5   2/ 5
DRY TORTUGAS               82     130/ 19/ 21 1015.7F
SAND KEY                   83     150/ 15/ 18 1014.4S
SOMBRERO KEY               83     160/ 10/ 12 1015.7F
LONG KEY                   84                 1014.9

$$
FLZ067-068-071>074-168-172>174-210900-
SOUTHEAST FLORIDA 
  
CITY           SKY/WX    TMP DP  RH WIND       PRES   REMARKS
W PALM BEACH   MOCLDY    79  73  82 CALM      30.03F                  
FT LAUDER-EXEC FAIR      75  74  96 CALM      30.01F                  
FT LAUDERDALE  FAIR      77  73  87 CALM      30.00F                  
POMPANO BEACH  FAIR      78  74  87 CALM      30.01F                  
PEMBROKE PINES FAIR      80  75  84 CALM      30.03F                  
OPA LOCKA      FAIR      81  73  76 CALM      30.02S                  
MIAMI          MOCLDY    80  72  76 CALM      30.01F                  
WEST KENDALL   FAIR      77  74  90 CALM      30.01S                  
HOMESTEAD      FAIR      76  74  92 NW5       30.00S                  

STATION/POSITION SKY/WX   TEMP    WIND        PRES    WAVE   SWELL
                          AIR SEA DIR/SP/G            HT/PER HT/PER
                          (F)     (DEG/KT/KT) (MB)    (FT/S) (FT/S)
PORT EVERGLADES            84     130/  3/  7 1016.4
VIRGINIA KEY               82 88  140/  2/  4 1015.6F
LAKE WORTH                 83 84  160/  7/  8 1018.1F
FOWEY ROCKS                81 85  110/  4/  5 1016.5F
SETTLEMENT POINT           83     120/  5/  6 1017.0F

$$